Flag for Bosnia-Herzegovina Weather past 2 weeks in Sarajevo, Bosnia-Herzegovina

Now
70 °F

Sunny.


Feels Like: 70 °F
Forecast: 53 / 64 °F
Wind: 2 mph from North

Location: Sarajevo / Butmir

Current Time: Oct 1, 2014 at 3:02:57 PM

Latest Report: Oct 1, 2014 at 2:30 PM


Visibility: 10 mi

Pressure: 30.21 "Hg

Humidity: 50%

Dew point: 50 °F

Location of SarajevoLocation

Historic Weather in Sarajevo — Graph

°F

Sarajevo temperature yesterday

Maximum temperature yesterday: 72 °F (at 3:30 PM)
Minimum temperature yesterday: 43 °F (at 5:00 AM)
Average temperature yesterday: 53 °F

Past Weeks' High & Low Weather Summary

 TemperatureHumidityPressure
High75 °F (Sep 19, 3:00 PM)100% (Sep 17, 11:00 PM)30.48 "Hg (Sep 17, 11:00 PM)
Low39 °F (Sep 24, 3:00 AM)41% (Sep 18, 4:00 PM)29.83 "Hg (Sep 22, 3:30 PM)
Average55 °F85%30.17 "Hg
* Reported Sep 16 2:00 PM — Oct 1 2:00 PM, Sarajevo, Weather by CustomWeather, © 2014

Note: Actual official high and low records may vary slightly from our data, if they occured in-between our weather recording intervals... More about our weather records

Advertising

Sarajevo weather history for previous 24 hours

 ConditionsComfort  
Time TempWeatherWind HumidityBarometerVisibility
2:00 PM
Oct 1
68 °FSunny.2 mph56%30.24 "Hg10 mi
1:30 PM64 °FSunny.2 mph60%30.24 "Hg10 mi
1:00 PM64 °FSunny.1 mph60%30.27 "Hg10 mi
12:30 PM63 °FSunny.2 mph64%30.27 "Hg10 mi
12:00 PM59 °FSunny.2 mph68%30.30 "Hg10 mi
11:30 AM57 °FSunny.1 mph72%30.30 "Hg10 mi
11:00 AM55 °FSunny.1 mph72%30.33 "Hg10 mi
10:30 AM52 °FSunny.2 mph88%30.33 "Hg10 mi
10:00 AM48 °FFog.1 mph100%30.33 "Hg3 mi
9:30 AM45 °FFog.5 mph100%30.33 "Hg1 mi
9:00 AM45 °FFog.1 mph93%30.33 "Hg2 mi
8:30 AM41 °FFog.No wind100%30.33 "Hg1 mi
8:00 AM41 °FFog.No wind100%30.33 "Hg1 mi
7:30 AM41 °FQuite cool.1 mph93%30.33 "Hg1 mi
7:00 AM39 °FPassing clouds.1 mph100%30.33 "Hg5 mi
6:30 AM41 °FPassing clouds.2 mph93%30.33 "HgN/A
6:00 AM39 °FPassing clouds.2 mph100%30.33 "Hg4 mi
5:30 AM41 °FPassing clouds.1 mph100%30.33 "Hg4 mi
5:00 AM41 °FPassing clouds.1 mph93%30.33 "Hg4 mi
4:00 AM41 °FPassing clouds.No wind100%30.33 "Hg4 mi
3:00 AM43 °FClear.1 mph93%30.33 "Hg10 mi
2:00 AM45 °FClear.1 mph93%30.33 "Hg10 mi
1:00 AM45 °FClear.1 mph93%30.33 "Hg10 mi
12:00 AM46 °FClear.2 mph93%30.36 "Hg10 mi
11:00 PM
Sep 30
46 °FClear.2 mph93%30.33 "Hg10 mi
10:30 PM48 °FClear.2 mph87%30.33 "Hg10 mi
10:00 PM50 °FClear.2 mph88%30.33 "Hg10 mi
9:30 PM50 °FClear.3 mph88%30.33 "Hg10 mi
9:00 PM50 °FClear.2 mph88%30.33 "Hg10 mi
8:30 PM54 °FPassing clouds.3 mph82%30.33 "HgN/A
8:00 PM54 °FClear.3 mph82%30.33 "Hg10 mi
7:30 PM55 °FClear.5 mph82%30.30 "Hg10 mi
7:00 PM57 °FPassing clouds.5 mph77%30.30 "HgN/A
6:30 PM59 °FPassing clouds.6 mph68%30.30 "HgN/A
6:00 PM64 °FSunny.2 mph56%30.30 "Hg10 mi
5:30 PM68 °FSunny.2 mph56%30.30 "Hg10 mi
5:00 PM70 °FSunny.3 mph50%30.30 "Hg10 mi
4:30 PM72 °FSunny.2 mph47%30.27 "Hg10 mi
4:00 PM72 °FSunny.1 mph47%30.30 "Hg10 mi
3:30 PM72 °FSunny.1 mph47%30.30 "Hg10 mi
3:00 PM70 °FSunny.1 mph50%30.30 "Hg10 mi
Weather by CustomWeather, © 2014

See weather overviewHow to use our weather pages